Weather History for Duluth Sky Harbor, MN

Change the Weather History Date:

Sunday, May 6, 2012

  Actual Average Record
Temperature  
Mean Temperature 42 °F -  
Max Temperature 44 °F 55 °F 134 °F (1997)
Min Temperature 39 °F 35 °F 23 °F (1989)
Degree Days  
Heating Degree Days 24    
Moisture  
Dew Point 38 °F    
Average Humidity 87    
Maximum Humidity 93    
Minimum Humidity 81    
Precipitation  
Precipitation 0.00 in - - ()
Sea Level Pressure  
Sea Level Pressure 30.05 in    
Wind  
Wind Speed 20 mph (ENE)    
Max Wind Speed 31 mph    
Max Gust Speed 39 mph    
Visibility 10 miles    
Events Rain , Thunderstorm    
Averages and records for this station are not official NWS values.
T = Trace of Precipitation, MM = Missing Value Source: NWS Daily Summary

Daily Weather History Graph

Daily Weather History Graph

Search for Another Location

Airport:

Trip Planner

Search our weather history database for the weather conditions in past years. The results will help you decide how hot, cold, wet, or windy it might be!

Date:

Astronomy

May. 06, 2012 Rise Set
Actual Time 5:45 AM CDT 8:25 PM CDT
Civil Twilight 5:10 AM CDT 8:59 PM CDT
Nautical Twilight 4:27 AM CDT 9:43 PM CDT
Astronomical Twilight 3:36 AM CDT 10:34 PM CDT
Moon 9:35 PM CDT (5/6) 5:52 AM CDT (5/6)
Length of Visible Light 15h 49m
Length of Day
14h 40m
Full, 100% of the Moon is Illuminated
May 6
Full
May 12
Last Quarter
May 20
New
May 28
First Quarter
Jun 4
Full

Hourly Weather History & Observations

Time (CDT) Temp. Windchill Dew Point Humidity Pressure Visibility Wind Dir Wind Speed Gust Speed Precip Events Conditions
12:14 AM 41.0 °F 31.4 °F 37.4 °F 87% 30.08 in 10.0 mi ENE 21.9 mph - N/A Rain , Thunderstorm Light Thunderstorms and Rain
12:34 AM 41.0 °F 31.1 °F 37.4 °F 87% 30.08 in 10.0 mi ENE 23.0 mph - N/A Thunderstorm Overcast
12:53 AM 41.0 °F 31.1 °F 37.4 °F 87% 30.09 in 10.0 mi ENE 23.0 mph - N/A Rain , Thunderstorm Light Thunderstorms and Rain
1:13 AM 41.0 °F 31.6 °F 37.4 °F 87% 30.11 in 10.0 mi ENE 20.7 mph - N/A Rain , Thunderstorm Light Thunderstorms and Rain
1:33 AM 41.0 °F 32.5 °F 37.4 °F 87% 30.13 in 7.0 mi ENE 17.3 mph - N/A Rain Rain
1:54 AM 39.2 °F 30.5 °F 37.4 °F 93% 30.13 in 10.0 mi ENE 16.1 mph - N/A Rain , Thunderstorm Rain
2:13 AM 39.2 °F 29.6 °F 37.4 °F 93% 30.11 in 10.0 mi ENE 19.6 mph - N/A Rain Rain
2:34 AM 39.2 °F 28.7 °F 37.4 °F 93% 30.08 in 10.0 mi ENE 23.0 mph - N/A Rain Light Rain
2:53 AM 39.2 °F 29.3 °F 37.4 °F 93% 30.07 in 10.0 mi ENE 20.7 mph - N/A Rain Light Rain
3:14 AM 39.2 °F 29.6 °F 37.4 °F 93% 30.07 in 10.0 mi East 19.6 mph - N/A   Light Drizzle
3:33 AM 39.2 °F 29.8 °F 37.4 °F 93% 30.05 in 10.0 mi ENE 18.4 mph - N/A Rain Light Rain
3:54 AM 39.2 °F 29.8 °F 37.4 °F 93% 30.05 in 10.0 mi ENE 18.4 mph - N/A Rain Light Rain
4:14 AM 39.2 °F 29.8 °F 37.4 °F 93% 30.05 in 10.0 mi ENE 18.4 mph - N/A Rain Light Rain
4:33 AM 39.2 °F 30.2 °F 37.4 °F 93% 30.05 in 10.0 mi NE 17.3 mph - N/A Rain Light Rain
4:54 AM 39.2 °F 29.0 °F 37.4 °F 93% 30.05 in 10.0 mi NE 21.9 mph 27.6 mph N/A Rain , Thunderstorm Light Thunderstorms and Rain
5:13 AM 39.2 °F 28.3 °F 37.4 °F 93% 30.02 in 10.0 mi ENE 25.3 mph 29.9 mph N/A   Light Drizzle
5:33 AM 39.2 °F 29.3 °F 37.4 °F 93% 30.03 in 10.0 mi ENE 20.7 mph - N/A   Light Drizzle
5:54 AM 39.2 °F 29.6 °F 37.4 °F 93% 30.04 in 10.0 mi NE 19.6 mph - N/A Rain Rain
6:14 AM 39.2 °F 28.7 °F 37.4 °F 93% 30.06 in 10.0 mi ENE 23.0 mph - N/A Rain Light Rain
6:33 AM 39.2 °F 28.3 °F 37.4 °F 93% 30.04 in 7.0 mi ENE 25.3 mph - N/A Rain Light Rain
6:54 AM 39.2 °F 29.3 °F 37.4 °F 93% 30.05 in 4.0 mi NE 20.7 mph - N/A Rain Rain
7:13 AM 39.2 °F 28.5 °F 37.4 °F 93% 30.03 in 10.0 mi ENE 24.2 mph 32.2 mph N/A Rain Light Rain
7:33 AM 39.2 °F 27.6 °F 37.4 °F 93% 29.97 in 10.0 mi NE 28.8 mph 36.8 mph N/A Rain Light Rain
7:54 AM 39.2 °F 27.2 °F 37.4 °F 93% 29.96 in 10.0 mi NE 31.1 mph 39.1 mph N/A Rain Light Rain
8:13 AM 39.2 °F 27.4 °F 37.4 °F 93% 30.01 in 10.0 mi NE 29.9 mph 39.1 mph N/A   Overcast
8:33 AM 39.2 °F 28.5 °F 37.4 °F 93% 30.04 in 10.0 mi NE 24.2 mph 28.8 mph N/A   Overcast
8:54 AM 41.0 °F 31.1 °F 39.2 °F 93% 30.03 in 10.0 mi NE 23.0 mph 26.5 mph N/A   Overcast
9:13 AM 41.0 °F 31.9 °F 37.4 °F 87% 30.05 in 10.0 mi NE 19.6 mph - N/A   Light Drizzle
9:33 AM 39.2 °F 29.6 °F 37.4 °F 93% 30.06 in 10.0 mi NE 19.6 mph - N/A   Light Drizzle
9:53 AM 41.0 °F 31.1 °F 37.4 °F 87% 30.04 in 10.0 mi ENE 23.0 mph - N/A   Light Drizzle
10:13 AM 41.0 °F 33.1 °F 39.2 °F 93% 30.06 in 10.0 mi NE 15.0 mph 21.9 mph N/A   Overcast
10:33 AM 42.8 °F 35.4 °F 39.2 °F 87% 30.05 in 10.0 mi NE 15.0 mph - N/A   Overcast
10:54 AM 42.8 °F 34.5 °F 39.2 °F 87% 30.06 in 10.0 mi NE 18.4 mph - N/A   Overcast
11:14 AM 42.8 °F 34.8 °F 39.2 °F 87% 30.06 in 10.0 mi ENE 17.3 mph - N/A   Overcast
11:33 AM 42.8 °F 34.8 °F 39.2 °F 87% 30.07 in 10.0 mi ENE 17.3 mph - N/A   Overcast
11:54 AM 42.8 °F 34.3 °F 39.2 °F 87% 30.06 in 10.0 mi ENE 19.6 mph 24.2 mph N/A   Overcast
12:13 PM 42.8 °F 34.5 °F 39.2 °F 87% 30.06 in 10.0 mi NE 18.4 mph - N/A   Overcast
12:33 PM 42.8 °F 33.8 °F 39.2 °F 87% 30.05 in 10.0 mi ENE 21.9 mph - N/A   Overcast
12:54 PM 42.8 °F 33.1 °F 39.2 °F 87% 30.04 in 10.0 mi ENE 25.3 mph - N/A   Overcast
1:13 PM 44.6 °F 35.9 °F 39.2 °F 81% 30.04 in 10.0 mi NE 23.0 mph - N/A   Overcast
1:33 PM 44.6 °F 36.6 °F 39.2 °F 81% 30.04 in 10.0 mi NE 19.6 mph - N/A   Overcast
1:53 PM 44.6 °F 37.2 °F 39.2 °F 81% 30.03 in 10.0 mi NE 17.3 mph - N/A   Overcast
2:13 PM 44.6 °F 36.4 °F 39.2 °F 81% 30.03 in 10.0 mi ENE 20.7 mph - N/A   Overcast
2:33 PM 44.6 °F 36.6 °F 39.2 °F 81% 30.04 in 10.0 mi ENE 19.6 mph - N/A   Overcast
2:53 PM 44.6 °F 36.9 °F 39.2 °F 81% 30.04 in 10.0 mi ENE 18.4 mph - N/A   Overcast
3:13 PM 44.6 °F 36.9 °F 39.2 °F 81% 30.04 in 10.0 mi NE 18.4 mph - N/A   Overcast
3:34 PM 44.6 °F 36.4 °F 39.2 °F 81% 30.04 in 10.0 mi ENE 20.7 mph - N/A   Overcast
3:53 PM 44.6 °F 36.1 °F 39.2 °F 81% 30.04 in 10.0 mi NE 21.9 mph - N/A   Overcast
4:13 PM 44.6 °F 36.6 °F 39.2 °F 81% 30.05 in 10.0 mi ENE 19.6 mph - N/A   Overcast
4:34 PM 44.6 °F 36.6 °F 39.2 °F 81% 30.05 in 10.0 mi ENE 19.6 mph - N/A   Overcast
4:53 PM 44.6 °F 36.4 °F 39.2 °F 81% 30.04 in 10.0 mi ENE 20.7 mph - N/A   Overcast
5:13 PM 44.6 °F 36.4 °F 39.2 °F 81% 30.03 in 10.0 mi ENE 20.7 mph - N/A   Overcast
5:34 PM 44.6 °F 36.6 °F 39.2 °F 81% 30.03 in 10.0 mi ENE 19.6 mph - N/A   Overcast
5:53 PM 44.6 °F 38.4 °F 39.2 °F 81% 30.04 in 10.0 mi NE 12.7 mph 19.6 mph N/A   Overcast
6:13 PM 44.6 °F 37.8 °F 39.2 °F 81% 30.04 in 10.0 mi NE 15.0 mph - N/A   Overcast
6:34 PM 44.6 °F 36.9 °F 39.2 °F 81% 30.04 in 10.0 mi ENE 18.4 mph - N/A   Overcast
6:53 PM 44.6 °F 37.8 °F 39.2 °F 81% 30.05 in 10.0 mi ENE 15.0 mph - N/A   Overcast
7:13 PM 42.8 °F 35.8 °F 39.2 °F 87% 30.05 in 10.0 mi NE 13.8 mph - N/A   Overcast
7:34 PM 42.8 °F 35.8 °F 39.2 °F 87% 30.05 in 10.0 mi ENE 13.8 mph - N/A   Overcast
7:53 PM 42.8 °F 36.2 °F 37.4 °F 81% 30.04 in 10.0 mi ENE 12.7 mph - N/A   Overcast
8:13 PM 42.8 °F 36.6 °F 39.2 °F 87% 30.03 in 10.0 mi ENE 11.5 mph - N/A   Overcast
8:34 PM 42.8 °F 37.0 °F 37.4 °F 81% 30.04 in 10.0 mi NE 10.4 mph - N/A   Overcast
8:53 PM 42.8 °F 37.0 °F 39.2 °F 87% 30.04 in 10.0 mi ENE 10.4 mph - N/A   Overcast
9:13 PM 42.8 °F 35.4 °F 37.4 °F 81% 30.02 in 10.0 mi ENE 15.0 mph - N/A   Overcast
9:34 PM 42.8 °F 34.8 °F 39.2 °F 87% 30.01 in 10.0 mi ENE 17.3 mph - N/A   Overcast
10:13 PM 42.8 °F 35.1 °F 39.2 °F 87% 30.03 in 10.0 mi ENE 16.1 mph - N/A   Overcast
10:33 PM 42.8 °F 35.1 °F 39.2 °F 87% 30.02 in 10.0 mi ENE 16.1 mph - N/A   Overcast
10:53 PM 42.8 °F 35.8 °F 39.2 °F 87% 30.02 in 7.0 mi ENE 13.8 mph - N/A   Overcast
11:14 PM 42.8 °F 35.4 °F 39.2 °F 87% 30.01 in 7.0 mi ENE 15.0 mph - N/A   Overcast
11:33 PM 42.8 °F 35.1 °F 39.2 °F 87% 30.01 in 10.0 mi ENE 16.1 mph - N/A   Overcast
11:53 PM 42.8 °F 35.8 °F 39.2 °F 87% 30.02 in 10.0 mi ENE 13.8 mph - N/A   Overcast